Regional Weather Roundup
Issued by NWS

Home | Current Version | Previous Version | Text Only | Print | Product List | Glossary On
Versions: 1 2 3 4 5 6 7 8 9 10 11 12 13 14 15 16 17 18 19 20 21 22 23 24 25 26 27 28 29 30 31 32 33 34 35 36 37 38 39 40 41 42 43 44 45 46 47 48 49 50
000
ASUS44 KFWD 052003
RWRTX
NORTH TEXAS HOURLY WEATHER ROUNDUP
NATIONAL WEATHER SERVICE FORT WORTH TX
200 PM CST THU MAR 05 2015

NOTE: "FAIR" INDICATES FEW OR NO CLOUDS BELOW 12,000 FEET WITH NO
SIGNIFICANT WEATHER AND/OR OBSTRUCTIONS TO VISIBILITY.

TXZ118-119-052100-
DALLAS/FORT WORTH METROPLEX

CITY           SKY/WX    TMP DP  RH WIND       PRES   REMARKS
DFW AIRPORT    SUNNY     34  19  54 NE7       30.58  WCI  28
DALLAS LOVE    SUNNY     37  19  48 N8        30.59  WCI  31
FTW MEACHAM    SUNNY     36  20  52 VRB5      30.58  WCI  32
DAL-EXECUTIVE  SUNNY     36  18  48 N7        30.56  WCI  30
FTW-ALLIANCE   SUNNY     36  20  52 VRB5      30.58  WCI  32
FTW-SPINKS     SUNNY     36  19  51 NE12      30.59F WCI  27
ARLINGTON      SUNNY     37  18  46 N10G17    30.58  WCI  30
GRAND PRAIRIE  SUNNY     36  21  55 N9        30.60  WCI  29
LANCASTER      SUNNY     35  16  46 NE10      30.59F WCI  27
$$

TXZ091>094-102>105-117-120-121-131>134-052100-
NORTH CENTRAL TEXAS

CITY           SKY/WX    TMP DP  RH WIND       PRES   REMARKS
SHRMAN/DENISON SUNNY     38  24  58 N10       30.57F WCI  31
GAINESVILLE    SUNNY     37  19  49 CALM      30.59F
BOWIE          SUNNY     36  21  54 NW5       30.57F WCI  32
BRIDGEPORT     SUNNY     37  21  52 W3        30.60F
DECATUR        SUNNY     38  19  45 N8        30.56F WCI  32
DENTON         SUNNY     37  21  52 N8        30.58  WCI  31
MCKINNEY       SUNNY     35  20  54 N8        30.58  WCI  29
GREENVILLE       N/A     34  23  64 N8        30.58F WCI  27
TERRELL        SUNNY     38  23  55 N15       30.58  WCI  29
WAXAHACHIE     SUNNY     35  19  51 NE10G22   30.58F WCI  28
CLEBURNE       SUNNY     34  14  44 N12       30.59F WCI  25
GRANBURY       SUNNY     38  16  41 NE5       30.60F WCI  35
$$

TXZ083>090-098>101-113>116-127>130-139>142-154-155-052100-
WESTERN NORTH TEXAS

CITY           SKY/WX    TMP DP  RH WIND       PRES   REMARKS
WICHITA FALLS  SUNNY     39  18  42 CALM      30.57
WF-KICKAPOO    SUNNY     40  18  42 W3        30.59F
VERNON         SUNNY     39   8  27 W3        30.57F
ABILENE        SUNNY     37  21  52 N6        30.56  WCI  32
ABILENE-DYESS  SUNNY     35  17  47 N6        30.55  WCI  30
BRECKENRIDGE   SUNNY     38  17  43 N5        30.58F WCI  35
MINERAL WELLS  SUNNY     38  18  44 VRB7      30.56  WCI  33
STEPHENVILLE   SUNNY     36  19  49 NE12      30.59F WCI  28
COMANCHE       SUNNY     36  22  56 NE9G17    30.57F WCI  29
BROWNWOOD      SUNNY     37  19  48 NE9       30.57F WCI  31
COLEMAN        SUNNY     37  22  54 N6        30.56F WCI  32
BRADY          SUNNY     36  19  51 NE12      30.52F WCI  27
$$

TXZ143>147-156>162-174-175-052100-
CENTRAL TEXAS

CITY           SKY/WX    TMP DP  RH WIND       PRES   REMARKS
WACO           SUNNY     39  22  50 N21       30.57F WCI  29
WACO-MCGREGOR  SUNNY     39  27  60 N18G28    30.58F WCI  30
HILLSBORO      SUNNY     37  20  50 N14G22    30.57F WCI  28
CORSICANA      SUNNY     39  27  62 N14G22    30.57F WCI  31
MEXIA          SUNNY     37  26  65 N10       30.54F WCI  30
HEARNE         MOSUNNY   41  29  60 N18G25    30.54F WCI  33
CAMERON        MOSUNNY   41  29  62 N16G25    30.54F WCI  33
TEMPLE         SUNNY     41  19  42 N18G26    30.55F WCI  32
KILLEEN        SUNNY     38  23  53 NE18G31   30.53F WCI  28
KILLEEN-SKYLRK SUNNY     39  18  41 N17G25    30.53F WCI  30
FORT HOOD      SUNNY     39  23  51 N18G25    30.54F WCI  30
GATESVILLE     SUNNY     37  23  56 NE13G20   30.58F WCI  29
HAMILTON       SUNNY     37  20  49 NE13G18   30.56F WCI  29
LAMPASAS       SUNNY     38  21  50 NE14      30.54F WCI  30
$$

TXZ095>097-106>112-122>126-135>138-148>153-164>167-052100-
EAST TEXAS

CITY           SKY/WX    TMP DP  RH WIND       PRES   REMARKS
PARIS          SUNNY     36  23  60 N7        30.57F WCI  30
SULPHUR SPRNGS SUNNY     36  24  61 N12       30.59F WCI  28
MOUNT PLEASANT SUNNY     39  24  56 N7        30.57F WCI  34
GILMER         SUNNY     37  21  52 N14       30.53F WCI  29
MINEOLA        SUNNY     39  21  48 N9        30.56F WCI  33
TYLER          SUNNY     41  22  46 N13G24    30.52  WCI  34
LONGVIEW       SUNNY     40  21  46 N15G22    30.51  WCI  32
MARSHALL       SUNNY     41  22  47 N13G22    30.54F WCI  33
ATHENS         SUNNY     37  23  56 NE16G24   30.53F WCI  28
PALESTINE      SUNNY     42  22  46 N13G21    30.53F WCI  35
JACKSONVILLE   SUNNY     41  21  44 N12G22    30.51F WCI  34
HENDERSON      SUNNY     40  18  41 NE16G22   30.52F WCI  32
NACOGDOCHES    SUNNY     43  19  39 NE12G20   30.49F WCI  37
LUFKIN         SUNNY     46  25  43 N14G22    30.47F WCI  40
$$

SUPPLEMENTAL OBSERVATIONS (CENTRAL)

CITY           SKY/WX    TMP DP  RH WIND       PRES   REMARKS
$$

SUPPLEMENTAL OBSERVATIONS (WEST)

CITY           SKY/WX    TMP DP  RH WIND       PRES   REMARKS
$$

SUPPLEMENTAL OBSERVATIONS (EAST)

CITY           SKY/WX    TMP DP  RH WIND       PRES   REMARKS
$$

SUPPLEMENTAL OBSERVATIONS ARE A COLLECTION OF AUTOMATED INSTRUMENTS
THAT ARE MAINTAINED BY A VARIETY OF FEDERAL AND STATE AGENCIES.
CERTAIN ELEMENTS...SUCH AS HUMIDITY VALUES AND SUSTAINED WIND
SPEEDS...MAY BE APPROXIMATED.



USA.gov is the U.S. government's official web portal to all federal, state and local government web resources and services.